Year,Month,Day,Hour,Minute,Value (Times are PST for barometer in hPa)
2013,01,14,13,30,1032.17
2013,01,14,13,31,1032.17
2013,01,14,13,32,1032.17
2013,01,14,13,33,1032.17
2013,01,14,13,34,1032.17
2013,01,14,13,35,1032.17
2013,01,14,13,36,1032.17
2013,01,14,13,37,1032.17
2013,01,14,13,38,1032.17
2013,01,14,13,39,1032.17
2013,01,14,13,40,1032.17
2013,01,14,13,41,1032.17
2013,01,14,13,42,1032.17
2013,01,14,13,43,1032.18
2013,01,14,13,44,1032.21
2013,01,14,13,45,1032.21
2013,01,14,13,46,1032.21
2013,01,14,13,47,1032.21
2013,01,14,13,48,1032.21
2013,01,14,13,49,1032.21
2013,01,14,13,50,1032.21
2013,01,14,13,51,1032.21
2013,01,14,13,52,1032.21
2013,01,14,13,53,1032.21
2013,01,14,13,54,1032.21
2013,01,14,13,55,1032.21
2013,01,14,13,56,1032.21
2013,01,14,13,57,1032.21
2013,01,14,13,58,1032.22
2013,01,14,13,59,1032.27
2013,01,14,14,00,1032.27
2013,01,14,14,01,1032.27
2013,01,14,14,02,1032.27
2013,01,14,14,03,1032.27
2013,01,14,14,04,1032.27
2013,01,14,14,05,1032.27
2013,01,14,14,06,1032.27
2013,01,14,14,07,1032.27
2013,01,14,14,08,1032.27
2013,01,14,14,09,1032.27
2013,01,14,14,10,1032.27
2013,01,14,14,11,1032.27
2013,01,14,14,12,1032.27
2013,01,14,14,13,1032.29
2013,01,14,14,14,1032.37
2013,01,14,14,15,1032.37
2013,01,14,14,16,1032.37
2013,01,14,14,17,1032.37
2013,01,14,14,18,1032.37
2013,01,14,14,19,1032.37
2013,01,14,14,20,1032.37
2013,01,14,14,21,1032.37
2013,01,14,14,22,1032.37
2013,01,14,14,23,1032.37
2013,01,14,14,24,1032.37
2013,01,14,14,25,1032.37
2013,01,14,14,26,1032.37
2013,01,14,14,27,1032.37
2013,01,14,14,28,1032.37
2013,01,14,14,29,1032.37
2013,01,14,14,30,1032.37
2013,01,14,14,31,1032.37
2013,01,14,14,32,1032.37
2013,01,14,14,33,1032.37
2013,01,14,14,34,1032.37
2013,01,14,14,35,1032.37
2013,01,14,14,36,1032.37
2013,01,14,14,37,1032.37
2013,01,14,14,38,1032.37
2013,01,14,14,39,1032.37
2013,01,14,14,40,1032.37
2013,01,14,14,41,1032.37
2013,01,14,14,42,1032.37
2013,01,14,14,43,1032.40
2013,01,14,14,44,1032.51
2013,01,14,14,45,1032.51
2013,01,14,14,46,1032.51
2013,01,14,14,47,1032.51
2013,01,14,14,48,1032.51
2013,01,14,14,49,1032.51
2013,01,14,14,50,1032.51
2013,01,14,14,51,1032.51
2013,01,14,14,52,1032.51
2013,01,14,14,53,1032.51
2013,01,14,14,54,1032.51
2013,01,14,14,55,1032.51
2013,01,14,14,56,1032.51
2013,01,14,14,57,1032.51
2013,01,14,14,58,1032.48
2013,01,14,14,59,1032.37
2013,01,14,15,00,1032.37
2013,01,14,15,01,1032.37
2013,01,14,15,02,1032.37
2013,01,14,15,03,1032.37
2013,01,14,15,04,1032.37
2013,01,14,15,05,1032.37
2013,01,14,15,06,1032.37
2013,01,14,15,07,1032.37
2013,01,14,15,08,1032.37
2013,01,14,15,09,1032.37
2013,01,14,15,10,1032.37
2013,01,14,15,11,1032.37
2013,01,14,15,12,1032.37
2013,01,14,15,13,1032.43
2013,01,14,15,14,1032.65
2013,01,14,15,15,1032.65
2013,01,14,15,16,1032.65
2013,01,14,15,17,1032.65
2013,01,14,15,18,1032.65
2013,01,14,15,19,1032.65
2013,01,14,15,20,1032.65
2013,01,14,15,21,1032.65
2013,01,14,15,22,1032.65
2013,01,14,15,23,1032.65
2013,01,14,15,24,1032.65
2013,01,14,15,25,1032.65
2013,01,14,15,26,1032.65
2013,01,14,15,27,1032.65
2013,01,14,15,28,1032.67
2013,01,14,15,29,1032.75
2013,01,14,15,30,1032.75
2013,01,14,15,31,1032.75
2013,01,14,15,32,1032.75
2013,01,14,15,33,1032.75
2013,01,14,15,34,1032.75
2013,01,14,15,35,1032.75
2013,01,14,15,36,1032.75
2013,01,14,15,37,1032.75
2013,01,14,15,38,1032.75
2013,01,14,15,39,1032.75
2013,01,14,15,40,1032.75
2013,01,14,15,41,1032.75
2013,01,14,15,42,1032.75
2013,01,14,15,43,1032.76
2013,01,14,15,44,1032.78
2013,01,14,15,45,1032.78
2013,01,14,15,46,1032.78
2013,01,14,15,47,1032.78
2013,01,14,15,48,1032.78
2013,01,14,15,49,1032.78
2013,01,14,15,50,1032.78
2013,01,14,15,51,1032.78
2013,01,14,15,52,1032.78
2013,01,14,15,53,1032.78
2013,01,14,15,54,1032.78
2013,01,14,15,55,1032.78
2013,01,14,15,56,1032.78
2013,01,14,15,57,1032.78
2013,01,14,15,58,1032.78
2013,01,14,15,59,1032.78
2013,01,14,16,00,1032.78
2013,01,14,16,01,1032.78
2013,01,14,16,02,1032.78
2013,01,14,16,03,1032.78
2013,01,14,16,04,1032.78
2013,01,14,16,05,1032.78
2013,01,14,16,06,1032.78
2013,01,14,16,07,1032.78
2013,01,14,16,08,1032.78
2013,01,14,16,09,1032.78
2013,01,14,16,10,1032.78
2013,01,14,16,11,1032.78
2013,01,14,16,12,1032.78
2013,01,14,16,13,1032.78
2013,01,14,16,14,1032.78
2013,01,14,16,15,1032.78
2013,01,14,16,16,1032.78
2013,01,14,16,17,1032.78
2013,01,14,16,18,1032.78
2013,01,14,16,19,1032.78
2013,01,14,16,20,1032.78
2013,01,14,16,21,1032.78
2013,01,14,16,22,1032.78
2013,01,14,16,23,1032.78
2013,01,14,16,24,1032.78
2013,01,14,16,25,1032.78
2013,01,14,16,26,1032.78
2013,01,14,16,27,1032.78
2013,01,14,16,28,1032.79
2013,01,14,16,29,1032.82
2013,01,14,16,30,1032.82
2013,01,14,16,31,1032.82
2013,01,14,16,32,1032.82
2013,01,14,16,33,1032.82
2013,01,14,16,34,1032.82
2013,01,14,16,35,1032.82
2013,01,14,16,36,1032.82
2013,01,14,16,37,1032.82
2013,01,14,16,38,1032.82
2013,01,14,16,39,1032.82
2013,01,14,16,40,1032.82
2013,01,14,16,41,1032.82
2013,01,14,16,42,1032.82
2013,01,14,16,43,1032.85
2013,01,14,16,44,1033.02
2013,01,14,16,45,1033.02
2013,01,14,16,46,1033.02
2013,01,14,16,47,1033.02
2013,01,14,16,48,1033.02
2013,01,14,16,49,1033.02
2013,01,14,16,50,1033.02
2013,01,14,16,51,1033.02
2013,01,14,16,52,1033.02
2013,01,14,16,53,1033.02
2013,01,14,16,54,1033.02
2013,01,14,16,55,1033.02
2013,01,14,16,56,1033.02
2013,01,14,16,57,1033.02
2013,01,14,16,58,1033.04
2013,01,14,16,59,1033.12
2013,01,14,17,00,1033.12
2013,01,14,17,01,1033.12
2013,01,14,17,02,1033.12
2013,01,14,17,03,1033.12
2013,01,14,17,04,1033.12
2013,01,14,17,05,1033.12
2013,01,14,17,06,1033.12
2013,01,14,17,07,1033.12
2013,01,14,17,08,1033.12
2013,01,14,17,09,1033.12
2013,01,14,17,10,1033.12
2013,01,14,17,11,1033.12
2013,01,14,17,12,1033.12
2013,01,14,17,13,1033.14
2013,01,14,17,14,1033.22
2013,01,14,17,15,1033.22
2013,01,14,17,16,1033.22
2013,01,14,17,17,1033.22
2013,01,14,17,18,1033.22
2013,01,14,17,19,1033.22
2013,01,14,17,20,1033.22
2013,01,14,17,21,1033.22
2013,01,14,17,22,1033.22
2013,01,14,17,23,1033.22
2013,01,14,17,24,1033.22
2013,01,14,17,25,1033.22
2013,01,14,17,26,1033.22
2013,01,14,17,27,1033.22
2013,01,14,17,28,1033.21
2013,01,14,17,29,1033.15
2013,01,14,17,30,1033.15
2013,01,14,17,31,1033.15
2013,01,14,17,32,1033.15
2013,01,14,17,33,1033.15
2013,01,14,17,34,1033.15
2013,01,14,17,35,1033.15
2013,01,14,17,36,1033.15
2013,01,14,17,37,1033.15
2013,01,14,17,38,1033.15
2013,01,14,17,39,1033.15
2013,01,14,17,40,1033.15
2013,01,14,17,41,1033.15
2013,01,14,17,42,1033.15
2013,01,14,17,43,1033.17
2013,01,14,17,44,1033.26
2013,01,14,17,45,1033.26
2013,01,14,17,46,1033.26
2013,01,14,17,47,1033.26
2013,01,14,17,48,1033.26
2013,01,14,17,49,1033.26
2013,01,14,17,50,1033.26
2013,01,14,17,51,1033.26
2013,01,14,17,52,1033.26
2013,01,14,17,53,1033.26
2013,01,14,17,54,1033.26
2013,01,14,17,55,1033.26
2013,01,14,17,56,1033.26
2013,01,14,17,57,1033.26
2013,01,14,17,58,1033.27
2013,01,14,17,59,1033.32
2013,01,14,18,00,1033.32
2013,01,14,18,01,1033.32
2013,01,14,18,02,1033.32
2013,01,14,18,03,1033.32
2013,01,14,18,04,1033.32
2013,01,14,18,05,1033.32
2013,01,14,18,06,1033.32
2013,01,14,18,07,1033.32
2013,01,14,18,08,1033.32
2013,01,14,18,09,1033.32
2013,01,14,18,10,1033.32
2013,01,14,18,11,1033.32
2013,01,14,18,12,1033.32
2013,01,14,18,13,1033.32
2013,01,14,18,14,1033.32
2013,01,14,18,15,1033.32
2013,01,14,18,16,1033.32
2013,01,14,18,17,1033.32
2013,01,14,18,18,1033.32
2013,01,14,18,19,1033.32
2013,01,14,18,20,1033.32
2013,01,14,18,21,1033.32
2013,01,14,18,22,1033.32
2013,01,14,18,23,1033.32
2013,01,14,18,24,1033.32
2013,01,14,18,25,1033.32
2013,01,14,18,26,1033.32
2013,01,14,18,27,1033.32
2013,01,14,18,28,1033.39
2013,01,14,18,29,1033.66
2013,01,14,18,30,1033.66
2013,01,14,18,31,1033.66
2013,01,14,18,32,1033.66
2013,01,14,18,33,1033.66
2013,01,14,18,34,1033.66
2013,01,14,18,35,1033.66
2013,01,14,18,36,1033.66
2013,01,14,18,37,1033.66
2013,01,14,18,38,1033.66
2013,01,14,18,39,1033.66
2013,01,14,18,40,1033.66
2013,01,14,18,41,1033.66
2013,01,14,18,42,1033.66
2013,01,14,18,43,1033.68
2013,01,14,18,44,1033.80
2013,01,14,18,45,1033.80
2013,01,14,18,46,1033.80
2013,01,14,18,47,1033.80
2013,01,14,18,48,1033.80
2013,01,14,18,49,1033.80
2013,01,14,18,50,1033.80
2013,01,14,18,51,1033.80
2013,01,14,18,52,1033.80
2013,01,14,18,53,1033.80
2013,01,14,18,54,1033.80
2013,01,14,18,55,1033.80
2013,01,14,18,56,1033.80
2013,01,14,18,57,1033.80
2013,01,14,18,58,1033.80
2013,01,14,18,59,1033.83
2013,01,14,19,00,1033.83
2013,01,14,19,01,1033.83
2013,01,14,19,02,1033.83
2013,01,14,19,03,1033.83
2013,01,14,19,04,1033.83
2013,01,14,19,05,1033.83
2013,01,14,19,06,1033.83
2013,01,14,19,07,1033.83
2013,01,14,19,08,1033.83
2013,01,14,19,09,1033.83
2013,01,14,19,10,1033.83
2013,01,14,19,11,1033.83
2013,01,14,19,12,1033.83
2013,01,14,19,13,1033.86
2013,01,14,19,14,1034.00
2013,01,14,19,15,1034.00
2013,01,14,19,16,1034.00
2013,01,14,19,17,1034.00
2013,01,14,19,18,1034.00
2013,01,14,19,19,1034.00
2013,01,14,19,20,1034.00
2013,01,14,19,21,1034.00
2013,01,14,19,22,1034.00
2013,01,14,19,23,1034.00
2013,01,14,19,24,1034.00
2013,01,14,19,25,1034.00
2013,01,14,19,26,1034.00
2013,01,14,19,27,1034.00
2013,01,14,19,28,1034.04
2013,01,14,19,29,1034.24
2013,01,14,19,30,1034.24
2013,01,14,19,31,1034.24
2013,01,14,19,32,1034.24
2013,01,14,19,33,1034.24
2013,01,14,19,34,1034.24
2013,01,14,19,35,1034.24
2013,01,14,19,36,1034.24
2013,01,14,19,37,1034.24
2013,01,14,19,38,1034.24
2013,01,14,19,39,1034.24
2013,01,14,19,40,1034.24
2013,01,14,19,41,1034.24
2013,01,14,19,42,1034.24
2013,01,14,19,43,1034.24
2013,01,14,19,44,1034.24
2013,01,14,19,45,1034.24
2013,01,14,19,46,1034.24
2013,01,14,19,47,1034.24
2013,01,14,19,48,1034.24
2013,01,14,19,49,1034.24
2013,01,14,19,50,1034.24
2013,01,14,19,51,1034.24
2013,01,14,19,52,1034.24
2013,01,14,19,53,1034.24
2013,01,14,19,54,1034.24
2013,01,14,19,55,1034.24
2013,01,14,19,56,1034.24
2013,01,14,19,57,1034.24
2013,01,14,19,58,1034.25
2013,01,14,19,59,1034.31
2013,01,14,20,00,1034.31
2013,01,14,20,01,1034.31
2013,01,14,20,02,1034.31
2013,01,14,20,03,1034.31
2013,01,14,20,04,1034.31
2013,01,14,20,05,1034.31
2013,01,14,20,06,1034.31
2013,01,14,20,07,1034.31
2013,01,14,20,08,1034.31
2013,01,14,20,09,1034.31
2013,01,14,20,10,1034.31
2013,01,14,20,11,1034.31
2013,01,14,20,12,1034.31
2013,01,14,20,13,1034.31
2013,01,14,20,14,1034.31
2013,01,14,20,15,1034.31
2013,01,14,20,16,1034.31
2013,01,14,20,17,1034.31
2013,01,14,20,18,1034.31
2013,01,14,20,19,1034.31
2013,01,14,20,20,1034.31
2013,01,14,20,21,1034.31
2013,01,14,20,22,1034.31
2013,01,14,20,23,1034.31
2013,01,14,20,24,1034.31
2013,01,14,20,25,1034.31
2013,01,14,20,26,1034.31
2013,01,14,20,27,1034.31
2013,01,14,20,28,1034.30
2013,01,14,20,29,1034.27
2013,01,14,20,30,1034.27
2013,01,14,20,31,1034.27
2013,01,14,20,32,1034.27
2013,01,14,20,33,1034.27
2013,01,14,20,34,1034.27
2013,01,14,20,35,1034.27
2013,01,14,20,36,1034.27
2013,01,14,20,37,1034.27
2013,01,14,20,38,1034.27
2013,01,14,20,39,1034.27
2013,01,14,20,40,1034.27
2013,01,14,20,41,1034.27
2013,01,14,20,42,1034.27
2013,01,14,20,43,1034.29
2013,01,14,20,44,1034.37
2013,01,14,20,45,1034.37
2013,01,14,20,46,1034.37
2013,01,14,20,47,1034.37
2013,01,14,20,48,1034.37
2013,01,14,20,49,1034.37
2013,01,14,20,50,1034.37
2013,01,14,20,51,1034.37
2013,01,14,20,52,1034.37
2013,01,14,20,53,1034.37
2013,01,14,20,54,1034.37
2013,01,14,20,55,1034.37
2013,01,14,20,56,1034.37
2013,01,14,20,57,1034.37
2013,01,14,20,58,1034.38
2013,01,14,20,59,1034.41
2013,01,14,21,00,1034.41
2013,01,14,21,01,1034.41
2013,01,14,21,02,1034.41
2013,01,14,21,03,1034.41
2013,01,14,21,04,1034.41
2013,01,14,21,05,1034.41
2013,01,14,21,06,1034.41
2013,01,14,21,07,1034.41
2013,01,14,21,08,1034.41
2013,01,14,21,09,1034.41
2013,01,14,21,10,1034.41
2013,01,14,21,11,1034.41
2013,01,14,21,12,1034.41
2013,01,14,21,13,1034.42
2013,01,14,21,14,1034.47
2013,01,14,21,15,1034.47
2013,01,14,21,16,1034.47
2013,01,14,21,17,1034.47
2013,01,14,21,18,1034.47
2013,01,14,21,19,1034.47
2013,01,14,21,20,1034.47
2013,01,14,21,21,1034.47
2013,01,14,21,22,1034.47
2013,01,14,21,23,1034.47
2013,01,14,21,24,1034.47
2013,01,14,21,25,1034.47
2013,01,14,21,26,1034.47
2013,01,14,21,27,1034.47
2013,01,14,21,28,1034.51
2013,01,14,21,29,1034.68
2013,01,14,21,30,1034.68
2013,01,14,21,31,1034.68
2013,01,14,21,32,1034.68
2013,01,14,21,33,1034.68
2013,01,14,21,34,1034.68
2013,01,14,21,35,1034.68
2013,01,14,21,36,1034.68
2013,01,14,21,37,1034.68
2013,01,14,21,38,1034.68
2013,01,14,21,39,1034.68
2013,01,14,21,40,1034.68
2013,01,14,21,41,1034.68
2013,01,14,21,42,1034.68
2013,01,14,21,43,1034.70
2013,01,14,21,44,1034.81
2013,01,14,21,45,1034.81
2013,01,14,21,46,1034.81
2013,01,14,21,47,1034.81
2013,01,14,21,48,1034.81
2013,01,14,21,49,1034.81
2013,01,14,21,50,1034.81
2013,01,14,21,51,1034.81
2013,01,14,21,52,1034.81
2013,01,14,21,53,1034.81
2013,01,14,21,54,1034.81
2013,01,14,21,55,1034.81
2013,01,14,21,56,1034.81
2013,01,14,21,57,1034.81
2013,01,14,21,58,1034.81
2013,01,14,21,59,1034.81
2013,01,14,22,00,1034.81
2013,01,14,22,01,1034.81
2013,01,14,22,02,1034.81
2013,01,14,22,03,1034.81
2013,01,14,22,04,1034.81
2013,01,14,22,05,1034.81
2013,01,14,22,06,1034.81
2013,01,14,22,07,1034.81
2013,01,14,22,08,1034.81
2013,01,14,22,09,1034.81
2013,01,14,22,10,1034.81
2013,01,14,22,11,1034.81
2013,01,14,22,12,1034.81
2013,01,14,22,13,1034.82
2013,01,14,22,14,1034.85
2013,01,14,22,15,1034.85
2013,01,14,22,16,1034.85
2013,01,14,22,17,1034.85
2013,01,14,22,18,1034.85
2013,01,14,22,19,1034.85
2013,01,14,22,20,1034.85
2013,01,14,22,21,1034.85
2013,01,14,22,22,1034.85
2013,01,14,22,23,1034.85
2013,01,14,22,24,1034.85
2013,01,14,22,25,1034.85
2013,01,14,22,26,1034.85
2013,01,14,22,27,1034.85
2013,01,14,22,28,1034.85
2013,01,14,22,29,1034.88
2013,01,14,22,30,1034.88
2013,01,14,22,31,1034.88
2013,01,14,22,32,1034.88
2013,01,14,22,33,1034.88
2013,01,14,22,34,1034.88
2013,01,14,22,35,1034.88
2013,01,14,22,36,1034.88
2013,01,14,22,37,1034.88
2013,01,14,22,38,1034.88
2013,01,14,22,39,1034.88
2013,01,14,22,40,1034.88
2013,01,14,22,41,1034.88
2013,01,14,22,42,1034.88
2013,01,14,22,43,1034.88
2013,01,14,22,44,1034.88
2013,01,14,22,45,1034.88
2013,01,14,22,46,1034.88
2013,01,14,22,47,1034.88
2013,01,14,22,48,1034.88
2013,01,14,22,49,1034.88
2013,01,14,22,50,1034.88
2013,01,14,22,51,1034.88
2013,01,14,22,52,1034.88
2013,01,14,22,53,1034.88
2013,01,14,22,54,1034.88
2013,01,14,22,55,1034.88
2013,01,14,22,56,1034.88
2013,01,14,22,57,1034.88
2013,01,14,22,58,1034.90
2013,01,14,22,59,1034.98
2013,01,14,23,00,1034.98
2013,01,14,23,01,1034.98
2013,01,14,23,02,1034.98
2013,01,14,23,03,1034.98
2013,01,14,23,04,1034.98
2013,01,14,23,05,1034.98
2013,01,14,23,06,1034.98
2013,01,14,23,07,1034.98
2013,01,14,23,08,1034.98
2013,01,14,23,09,1034.98
2013,01,14,23,10,1034.98
2013,01,14,23,11,1034.98
2013,01,14,23,12,1034.98
2013,01,14,23,13,1034.99
2013,01,14,23,14,1035.02
2013,01,14,23,15,1035.02
2013,01,14,23,16,1035.02
2013,01,14,23,17,1035.02
2013,01,14,23,18,1035.02
2013,01,14,23,19,1035.02
2013,01,14,23,20,1035.02
2013,01,14,23,21,1035.02
2013,01,14,23,22,1035.02
2013,01,14,23,23,1035.02
2013,01,14,23,24,1035.02
2013,01,14,23,25,1035.02
2013,01,14,23,26,1035.02
2013,01,14,23,27,1035.02
2013,01,14,23,28,1035.04
2013,01,14,23,29,1035.15
2013,01,14,23,30,1035.15
2013,01,14,23,31,1035.15
2013,01,14,23,32,1035.15
2013,01,14,23,33,1035.15
2013,01,14,23,34,1035.15
2013,01,14,23,35,1035.15
2013,01,14,23,36,1035.15
2013,01,14,23,37,1035.15
2013,01,14,23,38,1035.15
2013,01,14,23,39,1035.15
2013,01,14,23,40,1035.15
2013,01,14,23,41,1035.15
2013,01,14,23,42,1035.15
2013,01,14,23,43,1035.18
2013,01,14,23,44,1035.35
2013,01,14,23,45,1035.35
2013,01,14,23,46,1035.35
2013,01,14,23,47,1035.35
2013,01,14,23,48,1035.35
2013,01,14,23,49,1035.35
2013,01,14,23,50,1035.35
2013,01,14,23,51,1035.35
2013,01,14,23,52,1035.35
2013,01,14,23,53,1035.35
2013,01,14,23,54,1035.35
2013,01,14,23,55,1035.35
2013,01,14,23,56,1035.35
2013,01,14,23,57,1035.35
2013,01,14,23,58,1035.37
2013,01,14,23,59,1035.46
